When you browse on this site, cookies collect data to enhance your experience and personalize the content and advertising you see.
Visit our Privacy Policy to learn more. By continuing to use the site, you agree to this use of cookies and data.
  • En España
  • Lista de países
  • Para 7 días
  • Temperatura del agua
  • El tiempo en el mapa
  • Informadores
  • user-avatar
    Iniciar sesión

    Tiempo cada hora Batina

    Hoy, 27 Enero, Lunes

    Tiempo Temperatura Precipitaciones Viento Presión Humedad
    00:00 +6°C° 0 mm 1 mps 673 mmHg 85%
    01:00 +6°C° 0 mm 1 mps 673 mmHg 85%
    02:00 +5°C° 0 mm 1 mps 672 mmHg 86%
    03:00 +5°C° 0 mm 1 mps 672 mmHg 87%
    04:00 +5°C° 0 mm 1 mps 672 mmHg 88%
    05:00 +4°C° 0 mm 1 mps 672 mmHg 88%
    06:00 +4°C° 0 mm 1 mps 673 mmHg 88%
    07:00 +5°C° 0 mm 1 mps 673 mmHg 82%
    08:00 +7°C° 0 mm 1 mps 674 mmHg 76%
    09:00 +8°C° 0 mm 1 mps 675 mmHg 69%
    10:00 +9°C° 0 mm 1 mps 675 mmHg 64%
    11:00 +10°C° 0 mm 1 mps 675 mmHg 58%
    12:00 +11°C° 0 mm 1 mps 675 mmHg 52%
    13:00 +11°C° 0 mm 1 mps 675 mmHg 52%
    14:00 +12°C° 0 mm 2 mps 674 mmHg 51%
    15:00 +12°C° 0 mm 2 mps 674 mmHg 51%
    16:00 +10°C° 0 mm 2 mps 674 mmHg 58%
    17:00 +8°C° 0 mm 2 mps 674 mmHg 65%
    18:00 +8°C° 0 mm 1 mps 674 mmHg 72%
    19:00 +6°C° 0 mm 2 mps 674 mmHg 75%
    20:00 +6°C° 0 mm 2 mps 674 mmHg 78%
    21:00 +5°C° 0 mm 2 mps 674 mmHg 80%
    22:00 +5°C° 0 mm 2 mps 674 mmHg 81%
    23:00 +5°C° 0 mm 2 mps 674 mmHg 81%

    Mañana, 28 Enero, Martes

    Tiempo Temperatura Precipitaciones Viento Presión Humedad
    00:00 +4°C° 0 mm 2 mps 674 mmHg 81%
    01:00 +4°C° 0 mm 2 mps 673 mmHg 81%
    02:00 +4°C° 0 mm 2 mps 673 mmHg 81%
    03:00 +4°C° 0 mm 2 mps 673 mmHg 80%
    04:00 +3°C° 0 mm 2 mps 673 mmHg 80%
    05:00 +3°C° 0 mm 2 mps 673 mmHg 79%
    06:00 +3°C° 0 mm 2 mps 673 mmHg 79%
    07:00 +4°C° 0 mm 2 mps 674 mmHg 70%
    08:00 +6°C° 0 mm 2 mps 674 mmHg 62%
    09:00 +8°C° 0 mm 2 mps 675 mmHg 53%
    10:00 +9°C° 0 mm 2 mps 675 mmHg 47%
    11:00 +10°C° 0 mm 2 mps 675 mmHg 40%
    12:00 +13°C° 0 mm 2 mps 675 mmHg 33%
    13:00 +13°C° 0 mm 2 mps 675 mmHg 34%
    14:00 +13°C° 0 mm 2 mps 674 mmHg 36%
    15:00 +13°C° 0 mm 2 mps 674 mmHg 37%
    16:00 +12°C° 0 mm 2 mps 674 mmHg 44%
    17:00 +10°C° 0 mm 1 mps 673 mmHg 52%
    18:00 +8°C° 0 mm 1 mps 673 mmHg 59%
    19:00 +8°C° 0 mm 1 mps 674 mmHg 59%
    20:00 +8°C° 0 mm 1 mps 674 mmHg 59%
    21:00 +8°C° 0 mm 1 mps 674 mmHg 59%
    22:00 +8°C° 0 mm 1 mps 674 mmHg 60%
    23:00 +7°C° 0 mm 1 mps 674 mmHg 61%

    Pasado mañana, 29 Enero, Miércoles

    Tiempo Temperatura Precipitaciones Viento Presión Humedad
    00:00 +6°C° 0 mm 0 mps 674 mmHg 62%
    01:00 +7°C° 0 mm 1 mps 673 mmHg 62%
    02:00 +7°C° 0 mm 1 mps 673 mmHg 62%
    03:00 +7°C° 0 mm 1 mps 673 mmHg 62%
    04:00 +7°C° 0 mm 1 mps 673 mmHg 63%
    05:00 +6°C° 0 mm 1 mps 673 mmHg 65%
    06:00 +6°C° 0 mm 1 mps 673 mmHg 66%
    07:00 +8°C° 0 mm 1 mps 673 mmHg 60%
    08:00 +10°C° 0 mm 1 mps 674 mmHg 54%
    09:00 +12°C° 0 mm 2 mps 675 mmHg 47%
    10:00 +12°C° 0 mm 2 mps 675 mmHg 46%
    11:00 +13°C° 0 mm 2 mps 675 mmHg 45%
    12:00 +14°C° 0 mm 2 mps 675 mmHg 43%
    13:00 +14°C° 0 mm 2 mps 675 mmHg 44%
    14:00 +15°C° 0 mm 2 mps 674 mmHg 44%
    15:00 +14°C° 0 mm 3 mps 674 mmHg 45%
    16:00 +13°C° 0 mm 2 mps 674 mmHg 52%
    17:00 +12°C° 0 mm 2 mps 674 mmHg 59%
    18:00 +10°C° 0 mm 1 mps 673 mmHg 66%
    19:00 +10°C° 0 mm 1 mps 674 mmHg 66%
    20:00 +10°C° 0 mm 1 mps 674 mmHg 67%
    21:00 +9°C° 0 mm 1 mps 674 mmHg 67%
    22:00 +9°C° 0 mm 1 mps 674 mmHg 68%
    23:00 +9°C° 0 mm 1 mps 673 mmHg 70%

    30 Enero, Jueves

    Tiempo Temperatura Precipitaciones Viento Presión Humedad
    00:00 +8°C° 0 mm 1 mps 673 mmHg 71%
    01:00 +8°C° 0 mm 1 mps 673 mmHg 72%
    02:00 +8°C° 0 mm 1 mps 673 mmHg 72%
    03:00 +7°C° 0 mm 1 mps 673 mmHg 73%
    04:00 +7°C° 0 mm 1 mps 673 mmHg 72%
    05:00 +7°C° 0 mm 1 mps 673 mmHg 72%
    06:00 +7°C° 0 mm 1 mps 672 mmHg 72%
    07:00 +9°C° 0 mm 1 mps 673 mmHg 64%
    08:00 +11°C° 0 mm 1 mps 674 mmHg 57%
    09:00 +12°C° 0 mm 1 mps 675 mmHg 49%
    10:00 +13°C° 0 mm 1 mps 675 mmHg 45%
    11:00 +14°C° 0 mm 2 mps 675 mmHg 42%
    12:00 +15°C° 0 mm 2 mps 675 mmHg 38%
    13:00 +15°C° 0 mm 2 mps 675 mmHg 38%
    14:00 +15°C° 0 mm 2 mps 675 mmHg 39%
    15:00 +15°C° 0 mm 2 mps 674 mmHg 40%
    16:00 +14°C° 0 mm 1 mps 674 mmHg 47%
    17:00 +12°C° 0 mm 1 mps 673 mmHg 54%
    18:00 +10°C° 0 mm 0 mps 673 mmHg 62%
    19:00 +9°C° 0 mm 0 mps 673 mmHg 63%
    20:00 +9°C° 0 mm 0 mps 673 mmHg 64%
    21:00 +8°C° 0 mm 0 mps 673 mmHg 65%
    22:00 +8°C° 0 mm 0 mps 673 mmHg 65%
    23:00 +9°C° 0 mm 1 mps 673 mmHg 65%

    31 Enero, Viernes

    Tiempo Temperatura Precipitaciones Viento Presión Humedad
    00:00 +8°C° 0 mm 1 mps 673 mmHg 65%
    01:00 +8°C° 0 mm 1 mps 673 mmHg 65%
    02:00 +8°C° 0 mm 1 mps 673 mmHg 65%
    03:00 +8°C° 0 mm 1 mps 672 mmHg 64%
    04:00 +7°C° 0 mm 1 mps 672 mmHg 66%
    05:00 +7°C° 0 mm 1 mps 672 mmHg 67%
    06:00 +7°C° 0 mm 1 mps 672 mmHg 68%
    07:00 +9°C° 0 mm 1 mps 673 mmHg 59%
    08:00 +11°C° 0 mm 1 mps 674 mmHg 50%
    09:00 +13°C° 0 mm 1 mps 675 mmHg 40%
    10:00 +14°C° 0 mm 1 mps 675 mmHg 36%
    11:00 +15°C° 0 mm 1 mps 675 mmHg 32%
    12:00 +16°C° 0 mm 1 mps 675 mmHg 28%
    13:00 +16°C° 0 mm 2 mps 674 mmHg 29%
    14:00 +16°C° 0 mm 2 mps 674 mmHg 30%
    15:00 +16°C° 0 mm 3 mps 674 mmHg 31%
    16:00 +14°C° 0 mm 2 mps 674 mmHg 39%
    17:00 +13°C° 0 mm 2 mps 674 mmHg 46%
    18:00 +11°C° 0 mm 1 mps 673 mmHg 54%
    19:00 +11°C° 0 mm 1 mps 673 mmHg 57%
    20:00 +10°C° 0 mm 1 mps 673 mmHg 59%
    21:00 +10°C° 0 mm 1 mps 674 mmHg 62%
    22:00 +9°C° 0 mm 1 mps 673 mmHg 64%
    23:00 +9°C° 0 mm 1 mps 673 mmHg 65%

    1 Febrero, Sábado

    Tiempo Temperatura Precipitaciones Viento Presión Humedad
    00:00 +9°C° 0 mm 1 mps 673 mmHg 66%
    01:00 +8°C° 0 mm 1 mps 673 mmHg 68%
    02:00 +8°C° 0 mm 1 mps 673 mmHg 69%
    03:00 +8°C° 0 mm 1 mps 672 mmHg 70%
    04:00 +6°C° 0 mm 0 mps 672 mmHg 72%
    05:00 +6°C° 0 mm 0 mps 672 mmHg 74%
    06:00 +6°C° 0 mm 0 mps 672 mmHg 75%
    07:00 +8°C° 0 mm 0 mps 673 mmHg 68%
    08:00 +9°C° 0 mm 0 mps 674 mmHg 61%
    09:00 +11°C° 0 mm 0 mps 675 mmHg 54%
    10:00 +13°C° 0 mm 1 mps 675 mmHg 52%
    11:00 +14°C° 0 mm 1 mps 675 mmHg 50%
    12:00 +15°C° 0 mm 2 mps 675 mmHg 48%
    13:00 +15°C° 0 mm 2 mps 675 mmHg 48%
    14:00 +14°C° 0 mm 3 mps 675 mmHg 47%
    15:00 +14°C° 0 mm 3 mps 675 mmHg 47%
    16:00 +13°C° 0 mm 3 mps 675 mmHg 54%
    17:00 +12°C° 0 mm 2 mps 674 mmHg 61%
    18:00 +10°C° 0 mm 2 mps 674 mmHg 68%
    19:00 +10°C° 0 mm 1 mps 674 mmHg 71%
    20:00 +10°C° 0 mm 1 mps 674 mmHg 74%
    21:00 +9°C° 0 mm 1 mps 675 mmHg 78%
    22:00 +9°C° 0 mm 1 mps 674 mmHg 79%
    23:00 +8°C° 0 mm 1 mps 674 mmHg 80%
    Mostrar más